Starlink 11439

operational
NORAD ID: 62419 Int'l Des: 2024-249 Owner: SPXS Country: US Constellation: starlink
LEOCIRCULAR

关于 Starlink 11439

正在加载描述...

实时位置

正在加载3D地球...

即将过境

高度历史

Altitude vs Time

uPlot chart will show altitude changes over time

两行轨道根数

1 62419U 24249L 25257.05994222 .00177899 00000-0 13564-2 0 9999
2 62419 43.0037 152.1144 0002875 256.1425 103.9123 15.70909192 41700
Epoch: Sep 14, 2025 • Age: 41 hours

当前状态

高度 365.2 km
速度 7.69 km/s
星下点 -40.85°S, 121.48°E
发射日期 Dec 23, 2024
运行时间 0.7 years
类型 internet

技术详情

分类 Payload
质量 960.00 kg
干质量 910.00 kg
总质量 960.00 kg
长度 0.30 m
直径 4.10 m
跨度 29.00 m
形状 Box + pan
制造商 SPXS
平台类型 Starlink V2MD
阶段状态 In Orbit
所有者/国家 SPXS/US

大型星座

Loading constellations...